Date,TemperatureHighF,TemperatureAvgF,TemperatureLowF,DewpointHighF,DewpointAvgF,DewpointLowF,HumidityHigh,HumidityAvg,HumidityLow,PressureMaxIn,PressureMinIn,WindSpeedMaxMPH,WindSpeedAvgMPH,GustSpeedMaxMPH,PrecipitationSumIn
2013-1-1,46.6,36.2,29.7,38.3,28.4,21.5,94,75,48,30.09,30.06,6,0,8,0.00
2013-1-2,56.1,38.5,30.9,31.8,26.7,20.1,84,64,33,30.09,30.01,4,0,8,0.00
2013-1-3,53.2,37.9,31.1,38.2,30.2,27.4,88,75,41,30.12,30.01,6,0,8,0.00
2013-1-4,55.4,40.1,33.4,35.4,30.4,26.7,83,70,36,30.12,30.06,7,0,7,0.00
2013-1-5,51.6,41.1,36.3,38.2,32.3,25.7,85,73,37,30.12,29.95,6,0,8,0.00
2013-1-6,45.0,38.9,34.5,43.6,36.6,33.2,96,91,83,30.03,29.95,0,0,6,0.00
2013-1-7,54.9,43.0,34.3,39.9,34.8,29.0,96,74,46,30.06,30.01,0,0,6,0.00
2013-1-8,56.1,43.6,35.1,46.7,37.6,32.0,93,80,56,30.09,30.01,0,0,6,0.00
2013-1-9,49.8,41.8,32.4,43.1,37.0,31.1,95,84,51,30.03,29.74,8,1,12,0.35
2013-1-10,38.3,31.6,27.9,36.5,29.6,25.6,97,92,85,29.95,29.86,0,0,11,0.04
2013-1-11,41.4,30.7,25.7,32.7,25.3,20.6,94,81,50,30.03,29.95,0,0,6,0.00
2013-1-12,41.7,29.6,23.2,21.4,17.4,13.2,78,61,39,30.01,29.95,8,0,11,0.00
2013-1-13,39.9,29.0,21.9,19.8,13.3,7.1,80,54,32,30.03,29.98,4,0,12,0.00
2013-1-14,44.6,32.7,24.3,19.5,13.8,6.9,58,46,31,30.18,30.03,6,0,8,0.00
2013-1-15,46.4,34.3,27.5,27.3,22.5,17.7,79,63,40,30.27,30.18,5,0,12,0.00
2013-1-16,56.8,39.6,32.0,30.0,25.9,21.6,79,60,32,30.27,30.12,8,0,10,0.00
2013-1-17,65.3,43.8,33.6,32.9,25.1,15.2,69,49,28,30.12,30.06,7,0,8,0.00
2013-1-18,63.0,45.4,37.0,31.2,24.7,19.5,61,45,26,30.12,30.03,5,0,7,0.00
2013-1-19,63.0,45.4,37.2,32.4,25.9,18.9,60,47,28,30.15,30.03,0,0,6,0.00
2013-1-20,64.6,45.7,37.6,32.8,27.7,22.5,68,51,27,30.12,30.01,0,0,7,0.00
2013-1-21,64.9,46.7,38.1,33.5,26.8,19.0,64,47,29,30.06,30.01,6,0,12,0.00
2013-1-22,67.8,48.3,38.5,31.5,25.7,19.8,53,43,24,30.03,29.95,7,0,8,0.00
2013-1-23,61.2,50.9,44.2,45.2,30.2,23.7,95,49,27,30.01,29.89,10,1,12,0.04
2013-1-24,55.4,50.2,46.4,51.3,47.6,45.0,96,91,81,30.06,29.95,0,0,0,0.00
2013-1-25,56.3,51.4,48.9,54.9,49.9,47.5,97,95,91,30.06,29.92,5,0,8,0.04
2013-1-26,50.5,46.4,38.8,49.4,44.1,34.1,98,92,80,29.92,29.80,6,0,15,0.12
2013-1-27,45.9,37.7,33.1,40.3,33.8,30.5,96,86,68,30.09,29.86,8,0,11,0.16
2013-1-28,48.6,38.9,30.7,31.3,29.3,26.4,90,70,47,33.25,29.98,4,0,12,0.00
2013-1-29,50.7,43.5,33.6,37.1,33.9,29.9,88,70,47,30.18,30.09,5,0,8,0.00
2013-1-30,60.3,46.5,39.4,39.7,36.2,32.3,86,68,45,30.21,30.15,6,0,11,0.00
2013-1-31,61.7,46.0,37.4,45.5,37.9,33.9,88,75,41,30.18,30.09,0,0,12,0.00